Regional Weather Roundup
Issued by NWS

Home | Current Version | Previous Version | Graphics & Text | Print | Product List | Glossary On
Versions: 1 2 3 4 5 6 7 8 9 10 11 12 13 14 15 16 17 18 19 20 21 22 23 24 25 26 27 28
000
ASUS45 KSLC 151710
RWRUT

UTAH REGIONAL WEATHER ROUNDUP
NATIONAL WEATHER SERVICE SALT LAKE CITY UT
1100 AM MDT TUE AUG 15 2017

UTZ001>011-023>025-151800-

NORTHERN UTAH

CITY           SKY/WX    TMP DP  RH WIND       PRES   REMARKS
BRIGHAM CITY   MOSUNNY   69  47  45 CALM      29.99S
DUGWAY         MOSUNNY   72  46  38 W3        29.97S
HILL AFB       MOSUNNY   66  48  52 W5        30.01R
LOGAN          MOSUNNY   65  53  65 CALM      30.00S
OGDEN          SUNNY     70  47  43 NE3       29.99R
SALT LAKE CITY PTSUNNY   73  50  44 CALM      29.97S
TOOELE VALLEY  SUNNY     72  52  49 N7        29.99S
WENDOVER       SUNNY     72  45  37 SE8       29.99S
HEBER CITY     MOSUNNY   66  46  48 CALM      30.01S
WEST JORDAN    MOSUNNY   69  56  63 N5        30.00S

$$

UTZ011>015-024>027-151800-

CENTRAL/NORTHEAST UTAH

CITY           SKY/WX    TMP DP  RH WIND       PRES   REMARKS
PROVO AIRPORT    N/A     70  52  52 SW5       30.00R HAZE
MOAB/CANYONLAN CLOUDY    81  33  17 W22       29.92R
DELTA          CLOUDY    66  45  45 N7        29.99R
PRICE          CLOUDY    70  47  43 S3        30.02R
RICHFIELD      MOSUNNY   68  50  52 CALM      30.03R
ROOSEVELT      CLOUDY    70  50  49 CALM      30.00R
VERNAL         CLOUDY    72  56  57 SE5       29.98S

$$

UTZ013>016-019>022-027-151800-

SOUTHERN UTAH

CITY           SKY/WX    TMP DP  RH WIND       PRES   REMARKS
BRYCE CANYON   CLOUDY    61  34  36 SE6       30.16R
CEDAR CITY     PTSUNNY   71  34  25 SW6       30.01R
MILFORD        PTSUNNY   73  47  39 N14       29.98F
ST GEORGE      MOSUNNY   85  33  15 VRB5      29.85S
HANKSVILLE     CLOUDY    79  30  17 SW13      29.97S
KANAB          SUNNY     68  39  34 NW3       30.04R
BLANDING       CLOUDY    69  39  32 S5        30.15R

$$

REGIONAL REPORTS     COLORADO/ARIZONA

CITY           SKY/WX    TMP DP  RH WIND       PRES   REMARKS
CRAIG, CO      SUNNY     69  50  50 NW6       30.04S
GRAND JUNCTION MOSUNNY   81  40  23 S9        29.93S
RIFLE, CO      CLOUDY    71  46  40 CALM      29.99F
MONTROSE, CO   CLOUDY    78  32  18 E6        30.03S
CORTEZ, CO     CLOUDY    76  36  23 S13       30.09R
COLORADO CITY    N/A     79  36  21 SE8       30.02R
PAGE, AZ       CLOUDY    78  27  15 NW3       29.96R
GRAND CANYON   CLOUDY    66  28  24 SW18      30.13S
KINGMAN, AZ    CLOUDY    78  34  20 E6        29.92R
FLAGSTAFF, AZ  PTSUNNY   61  39  44 SW13      30.18R

$$

REGIONAL REPORTS    NEVADA/IDAHO/WYOMING

CITY           SKY/WX    TMP DP  RH WIND       PRES   REMARKS
LAS VEGAS, NV  MOSUNNY   84  47  27 VRB3      29.78R
ELY, NY        MOSUNNY   67  42  40 NE10      30.06S
ELKO, NV       SUNNY     63  49  60 CALM      30.03S
POCATELLO, ID  CLOUDY    65  49  56 VRB5      30.02R
BURLEY, ID     SUNNY     67  51  56 N3        29.97S
FORT BRIDGER,    N/A     61  50  67 W8        30.12S
EVANSTON, WY   CLOUDY    60  44  55 VRB6      30.10S
ROCK SPRINGS,  CLOUDY    59  49  69 NW7       30.08R
KEMMERER, WY     N/A     57  46  67 SW6       30.12R

$$




USA.gov is the U.S. government's official web portal to all federal, state and local government web resources and services.